BRITE-PL2 (HEWELIUSZ)

Last updated on Tue Sep 16 2025 00:03:34 GMT+0000 (Coordinated Universal Time)

1 40119U 14049B 25258.55385650 .00001775 00000+0 17627-3 0 9997 2 40119 97.8950 4.0480 0013319 302.8351 57.1585 14.92972663600444
UTC large
Height (km)
Speed (km/s)
/
Latitude / Longitude
Inclination (degrees)
Orbital Period (minutes)
Azimuth
Elevation
Range (km)
Doppler Factor

Next 0 passes for location: London (51.5072 / 0.1276)

Sorry there are no passes over London.